Home > Weather > Saalfeld/Saale > Past weeks

Flag for Germany Weather for the Past 2 Weeks in Saalfeld/Saale, Thuringia, Germany

Now
72 °F

Passing clouds.


Feels Like: 77 °F
Forecast: 47 / 71 °F
Wind: 12 mph from East

Location: Erfurt-Bindersleben

Current Time: May 6, 2016 at 3:42:27 PM

Latest Report: May 6, 2016 at 3:20 PM


Visibility: N/A

Pressure: 30.04 "Hg

Humidity: 36%

Dew Point: 43 °F

Location of Saalfeld/SaaleLocation

Historic Weather in Saalfeld/Saale — Graph

°F

Saalfeld/Saale Temperature Yesterday

Maximum temperature yesterday: 63 °F (at 3:20 PM)
Minimum temperature yesterday: 41 °F (at 4:50 AM)
Average temperature yesterday: 52 °F

High & Low Weather Summary for the Past Weeks

 TemperatureHumidityPressure
High72 °F (May 6, 2:20 PM)100% (Apr 25, 2:20 AM)30.39 "Hg (Apr 25, 2:20 AM)
Low28 °F (Apr 24, 4:50 AM)38% (May 6, 1:20 PM)29.47 "Hg (Apr 26, 1:50 AM)
Average45 °F69%29.99 "Hg
* Reported Apr 21 2:20 PM — May 6 2:20 PM, Saalfeld/Saale, Weather by CustomWeather, © 2016

Note: Actual official high and low records may vary slightly from our data, if they occured in-between our weather recording intervals... More about our weather records

Advertising

Saalfeld/Saale Weather History for the Previous 24 Hours

Scroll right to see more
 ConditionsComfort  
Time TempWeatherWind HumidityBarometerVisibility
2:20 PM
Fri, May 6
72 °FPassing clouds.8 mph38%30.04 "HgN/A
1:50 PM70 °FPassing clouds.12 mph38%30.04 "HgN/A
1:20 PM70 °FPassing clouds.12 mph38%30.07 "HgN/A
12:50 PM70 °FPassing clouds.12 mph40%30.07 "HgN/A
12:20 PM68 °FPassing clouds.12 mph46%30.07 "HgN/A
11:50 AM68 °FPassing clouds.7 mph40%30.07 "HgN/A
11:20 AM66 °FPassing clouds.10 mph43%30.09 "HgN/A
10:50 AM66 °FPassing clouds.10 mph43%30.09 "HgN/A
10:20 AM63 °FSunny.3 mph68%30.09 "Hg10 mi
9:50 AM59 °FPassing clouds.5 mph72%30.09 "HgN/A
9:20 AM57 °FPassing clouds.5 mph72%30.12 "HgN/A
8:50 AM55 °FSunny.6 mph72%30.12 "Hg10 mi
8:20 AM52 °FSunny.5 mph82%30.12 "Hg10 mi
7:50 AM50 °FSunny.3 mph82%30.12 "Hg10 mi
7:20 AM50 °FPassing clouds.3 mph82%30.12 "HgN/A
6:50 AM48 °FSunny.3 mph87%30.12 "Hg10 mi
6:20 AM48 °FClear.3 mph87%30.12 "Hg10 mi
5:50 AM48 °FClear.2 mph87%30.12 "Hg10 mi
5:20 AM48 °FClear.2 mph87%30.12 "Hg10 mi
4:50 AM48 °FClear.2 mph82%30.12 "Hg10 mi
4:20 AM48 °FPassing clouds.3 mph82%30.15 "HgN/A
3:50 AM48 °FClear.5 mph82%30.15 "Hg10 mi
3:20 AM50 °FClear.3 mph82%30.15 "Hg10 mi
2:50 AM50 °FClear.5 mph76%30.15 "Hg10 mi
2:20 AM50 °FClear.6 mph76%30.15 "Hg10 mi
1:50 AM50 °FClear.3 mph76%30.15 "Hg10 mi
1:20 AM50 °FClear.5 mph82%30.18 "Hg10 mi
12:50 AM52 °FClear.3 mph77%30.18 "Hg10 mi
12:20 AM52 °FClear.6 mph77%30.18 "Hg10 mi
11:50 PM
Thu, May 5
52 °FClear.7 mph82%30.18 "Hg10 mi
11:20 PM52 °FClear.8 mph82%30.18 "Hg10 mi
10:50 PM54 °FClear.8 mph77%30.18 "Hg10 mi
10:20 PM54 °FClear.8 mph77%30.18 "Hg10 mi
9:50 PM54 °FClear.8 mph77%30.18 "Hg10 mi
9:20 PM55 °FSunny.6 mph72%30.18 "Hg10 mi
8:50 PM57 °FPassing clouds.7 mph67%30.18 "HgN/A
8:20 PM57 °FSunny.8 mph67%30.18 "Hg10 mi
7:50 PM59 °FPassing clouds.10 mph63%30.18 "HgN/A
7:20 PM61 °FPassing clouds.10 mph59%30.18 "HgN/A
6:50 PM63 °FPassing clouds.12 mph52%30.21 "HgN/A
6:20 PM63 °FPassing clouds.10 mph52%30.21 "HgN/A
5:50 PM63 °FPassing clouds.12 mph49%30.21 "HgN/A
5:20 PM63 °FPassing clouds.10 mph49%30.21 "HgN/A
4:50 PM63 °FScattered clouds.10 mph49%30.24 "HgN/A
4:20 PM63 °FPassing clouds.12 mph49%30.24 "HgN/A
3:50 PM63 °FPassing clouds.9 mph45%30.24 "HgN/A
3:20 PM63 °FPassing clouds.12 mph45%30.27 "HgN/A
Weather by CustomWeather, © 2016

See weather overviewHow to use our weather pages